time, Switch, Flow(0), Analog(2)
yyyy/mm/dd HH:MM:SS.fff, True=FILTERED|False=TOTAL, L/min, V
2023/06/23 06:00:01.868, True, 4.646, 0.128405
2023/06/23 06:00:02.371, True, 4.645, 0.130236
2023/06/23 06:00:02.868, True, 4.710, 0.131380
2023/06/23 06:00:03.371, True, 4.312, 0.130617
2023/06/23 06:00:03.876, True, 3.978, 0.130083
2023/06/23 06:00:04.380, True, 2.653, 0.130617
2023/06/23 06:00:04.876, True, 2.359, 0.129397
2023/06/23 06:00:05.380, True, 1.658, 0.130541
2023/06/23 06:00:05.884, True, 1.990, 0.131228
2023/06/23 06:00:06.380, True, 2.022, 0.129931
2023/06/23 06:00:06.884, True, 1.990, 0.130846
2023/06/23 06:00:07.388, True, 1.658, 0.131991
2023/06/23 06:00:07.884, True, 2.025, 0.129244
2023/06/23 06:00:08.388, True, 1.986, 0.131456
2023/06/23 06:00:08.892, True, 1.990, 0.128862
2023/06/23 06:00:09.387, True, 1.684, 0.129244
2023/06/23 06:00:09.891, True, 1.993, 0.130846
2023/06/23 06:00:10.396, True, 1.986, 0.131533
2023/06/23 06:00:10.892, True, 1.685, 0.128252
2023/06/23 06:00:11.396, True, 1.990, 0.130770
2023/06/23 06:00:11.900, True, 1.989, 0.130312
2023/06/23 06:00:12.396, True, 1.685, 0.130312
2023/06/23 06:00:12.900, True, 1.990, 0.130236
2023/06/23 06:00:13.404, True, 1.990, 0.130617
2023/06/23 06:00:13.908, True, 1.989, 0.129702
2023/06/23 06:00:14.404, True, 1.685, 0.132525
2023/06/23 06:00:14.908, True, 1.658, 0.129854
2023/06/23 06:00:15.411, True, 1.990, 0.129244
2023/06/23 06:00:15.908, True, 1.684, 0.130694
2023/06/23 06:00:16.412, True, 1.990, 0.129168
2023/06/23 06:00:16.916, True, 1.989, 0.129778
2023/06/23 06:00:17.411, True, 2.022, 0.129778
2023/06/23 06:00:17.916, True, 1.658, 0.130922
2023/06/23 06:00:18.420, True, 1.990, 0.128862
2023/06/23 06:00:18.916, True, 2.022, 0.128862
2023/06/23 06:00:19.420, True, 1.990, 0.129473
2023/06/23 06:00:19.924, True, 1.989, 0.130922
2023/06/23 06:00:20.428, True, 1.658, 0.129244
2023/06/23 06:00:20.924, True, 2.022, 0.130846
2023/06/23 06:00:21.428, True, 1.990, 0.131228
2023/06/23 06:00:21.932, True, 1.658, 0.130465
2023/06/23 06:00:22.428, True, 2.022, 0.131304
2023/06/23 06:00:22.932, True, 1.990, 0.129473
2023/06/23 06:00:23.436, True, 1.989, 0.129168
2023/06/23 06:00:23.932, True, 1.685, 0.129168
2023/06/23 06:00:24.436, True, 1.993, 0.131304
2023/06/23 06:00:24.940, True, 1.986, 0.131991
2023/06/23 06:00:25.435, True, 1.685, 0.131456
2023/06/23 06:00:25.940, True, 1.989, 0.128634
2023/06/23 06:00:26.443, True, 1.990, 0.128557
2023/06/23 06:00:26.939, True, 2.022, 0.130694
2023/06/23 06:00:27.444, True, 1.989, 0.129702
2023/06/23 06:00:27.947, True, 1.990, 0.128862
2023/06/23 06:00:28.443, True, 1.685, 0.131304
2023/06/23 06:00:28.947, True, 1.993, 0.132372
2023/06/23 06:00:29.452, True, 1.986, 0.130465
2023/06/23 06:00:29.955, True, 1.990, 0.129625
2023/06/23 06:00:30.451, True, 1.685, 0.132219
2023/06/23 06:00:30.956, True, 1.990, 0.131304
2023/06/23 06:00:31.460, True, 1.993, 0.131991
2023/06/23 06:00:31.956, True, 2.017, 0.131380
2023/06/23 06:00:32.460, True, 1.659, 0.131075
2023/06/23 06:00:32.956, True, 2.022, 0.131304
2023/06/23 06:00:33.459, True, 1.991, 0.131151
2023/06/23 06:00:33.964, True, 1.657, 0.131075
2023/06/23 06:00:34.468, True, 1.991, 0.130388
2023/06/23 06:00:34.963, True, 2.023, 0.132067
2023/06/23 06:00:35.468, True, 1.987, 0.132143
2023/06/23 06:00:35.964, True, 1.685, 0.130083
2023/06/23 06:00:36.467, True, 1.989, 0.131762
2023/06/23 06:00:36.972, True, 1.990, 0.133059
2023/06/23 06:00:37.468, True, 2.021, 0.134279
2023/06/23 06:00:37.972, True, 1.990, 0.134432
2023/06/23 06:00:38.476, True, 1.990, 0.134966
2023/06/23 06:00:38.972, True, 2.023, 0.135195
2023/06/23 06:00:39.475, True, 1.655, 0.134051
2023/06/23 06:00:39.972, True, 2.024, 0.134356
2023/06/23 06:00:40.476, True, 1.988, 0.133669
2023/06/23 06:00:40.980, True, 1.989, 0.136263
2023/06/23 06:00:41.484, True, 1.990, 0.134051
2023/06/23 06:00:41.980, True, 2.022, 0.134203
2023/06/23 06:00:42.484, True, 1.990, 0.136721
2023/06/23 06:00:42.980, True, 1.685, 0.136263
2023/06/23 06:00:43.484, True, 1.990, 0.136492
2023/06/23 06:00:43.988, True, 1.660, 0.135119
2023/06/23 06:00:44.484, True, 2.021, 0.138933
2023/06/23 06:00:44.987, True, 1.988, 0.138094
2023/06/23 06:00:45.492, True, 1.658, 0.138476
2023/06/23 06:00:45.987, True, 2.021, 0.139467
2023/06/23 06:00:46.492, True, 1.993, 0.138705
2023/06/23 06:00:46.996, True, 1.989, 0.137560
2023/06/23 06:00:47.492, True, 2.019, 0.138628
2023/06/23 06:00:47.996, True, 1.990, 0.139849
2023/06/23 06:00:48.500, True, 1.993, 0.139239
2023/06/23 06:00:48.996, True, 2.020, 0.138705
2023/06/23 06:00:49.499, True, 1.656, 0.139239
2023/06/23 06:00:50.004, True, 1.990, 0.140612
2023/06/23 06:00:50.500, True, 2.022, 0.140459
2023/06/23 06:00:51.003, True, 1.990, 0.143664
2023/06/23 06:00:51.508, True, 1.989, 0.142519
2023/06/23 06:00:52.003, True, 2.022, 0.139239
2023/06/23 06:00:52.507, True, 1.989, 0.141909
2023/06/23 06:00:53.012, True, 1.990, 0.141604
2023/06/23 06:00:53.508, True, 1.684, 0.139696
2023/06/23 06:00:54.011, True, 1.990, 0.140841
2023/06/23 06:00:54.516, True, 1.989, 0.143435
2023/06/23 06:00:55.012, True, 2.022, 0.142138
2023/06/23 06:00:55.516, True, 1.991, 0.142061
2023/06/23 06:00:56.012, True, 2.020, 0.143359
2023/06/23 06:00:56.516, True, 1.658, 0.142138
2023/06/23 06:00:57.020, True, 1.993, 0.142748
2023/06/23 06:00:57.516, True, 2.018, 0.141222
2023/06/23 06:00:58.019, True, 1.990, 0.140536
2023/06/23 06:00:58.524, True, 1.989, 0.141451
2023/06/23 06:00:59.020, True, 2.021, 0.142443
2023/06/23 06:00:59.523, True, 1.658, 0.142290
2023/06/23 06:01:00.027, True, 1.993, 0.143130
2023/06/23 06:01:00.531, True, 1.990, 0.142519
2023/06/23 06:01:01.028, True, 2.022, 0.144274
2023/06/23 06:01:01.532, True, 1.655, 0.142367
2023/06/23 06:01:02.036, True, 1.990, 0.143206
2023/06/23 06:01:02.531, True, 2.021, 0.142901
2023/06/23 06:01:03.035, True, 1.659, 0.143664
2023/06/23 06:01:03.539, True, 1.988, 0.142290
2023/06/23 06:01:04.036, True, 2.022, 0.141985
2023/06/23 06:01:04.540, True, 1.661, 0.141909
2023/06/23 06:01:05.043, True, 1.989, 0.142061
2023/06/23 06:01:05.540, True, 2.018, 0.141985
2023/06/23 06:01:06.044, True, 1.990, 0.141604
2023/06/23 06:01:06.548, True, 1.658, 0.142290
2023/06/23 06:01:07.043, True, 2.021, 0.143511
2023/06/23 06:01:07.548, True, 1.991, 0.141604
2023/06/23 06:01:08.052, True, 1.657, 0.143053
2023/06/23 06:01:08.548, True, 2.022, 0.142061
2023/06/23 06:01:09.052, True, 1.990, 0.142596
2023/06/23 06:01:09.556, True, 1.989, 0.143206
2023/06/23 06:01:10.060, True, 1.990, 0.142061
2023/06/23 06:01:10.556, True, 2.022, 0.144045
2023/06/23 06:01:11.060, True, 1.658, 0.142367
2023/06/23 06:01:11.563, True, 1.990, 0.142901
2023/06/23 06:01:12.060, True, 2.021, 0.141070
2023/06/23 06:01:12.563, True, 1.989, 0.143053
2023/06/23 06:01:13.068, True, 1.658, 0.143816
2023/06/23 06:01:13.563, True, 1.685, 0.144121
2023/06/23 06:01:14.068, True, 1.990, 0.141604
2023/06/23 06:01:14.572, True, 1.658, 0.142519
2023/06/23 06:01:15.067, True, 2.022, 0.141756
2023/06/23 06:01:15.571, True, 1.658, 0.142443
2023/06/23 06:01:16.076, True, 1.990, 0.143435
2023/06/23 06:01:16.572, True, 2.021, 0.142214
2023/06/23 06:01:17.076, True, 1.658, 0.142290
2023/06/23 06:01:17.572, True, 2.022, 0.143130
2023/06/23 06:01:18.075, True, 1.990, 0.142977
2023/06/23 06:01:18.579, True, 1.657, 0.140841
2023/06/23 06:01:19.075, True, 2.022, 0.145647
2023/06/23 06:01:19.579, True, 1.989, 0.141222
2023/06/23 06:01:20.084, True, 1.658, 0.142901
2023/06/23 06:01:20.580, True, 2.022, 0.142824
2023/06/23 06:01:21.084, True, 1.990, 0.143282
2023/06/23 06:01:21.588, True, 1.989, 0.142977
2023/06/23 06:01:22.083, True, 2.022, 0.142061
2023/06/23 06:01:22.588, True, 1.989, 0.143816
2023/06/23 06:01:23.092, True, 1.990, 0.143587
2023/06/23 06:01:23.588, True, 1.685, 0.143282
2023/06/23 06:01:24.092, True, 1.989, 0.144427
2023/06/23 06:01:24.595, True, 1.991, 0.142138
2023/06/23 06:01:25.100, True, 1.657, 0.143816
2023/06/23 06:01:25.596, True, 2.021, 0.142138
2023/06/23 06:01:26.100, True, 1.990, 0.142901
2023/06/23 06:01:26.595, True, 1.685, 0.142214
2023/06/23 06:01:27.099, True, 1.658, 0.141299
2023/06/23 06:01:27.603, True, 1.990, 0.140993
2023/06/23 06:01:28.108, True, 1.990, 0.144274
2023/06/23 06:01:28.604, True, 1.684, 0.142596
2023/06/23 06:01:29.108, True, 1.990, 0.141833
2023/06/23 06:01:29.603, True, 1.684, 0.142748
2023/06/23 06:01:30.108, True, 1.990, 0.142061
2023/06/23 06:01:30.611, True, 1.990, 0.143740
2023/06/23 06:01:31.108, True, 1.685, 0.142824
2023/06/23 06:01:31.612, True, 1.993, 0.142596
2023/06/23 06:01:32.115, True, 1.986, 0.142519
2023/06/23 06:01:32.619, True, 1.989, 0.141604
2023/06/23 06:01:33.115, True, 2.022, 0.141451
2023/06/23 06:01:33.620, True, 1.990, 0.141604
2023/06/23 06:01:34.115, True, 2.022, 0.140841
2023/06/23 06:01:34.619, True, 1.989, 0.141604
2023/06/23 06:01:35.123, True, 1.658, 0.142596
2023/06/23 06:01:35.627, True, 1.990, 0.142824
2023/06/23 06:01:36.124, True, 2.024, 0.142443
2023/06/23 06:01:36.627, True, 1.988, 0.141070
2023/06/23 06:01:37.131, True, 1.989, 0.141070
2023/06/23 06:01:37.635, True, 1.658, 0.141146
2023/06/23 06:01:38.131, True, 2.025, 0.144121
2023/06/23 06:01:38.635, True, 1.987, 0.141222
2023/06/23 06:01:39.140, True, 1.658, 0.139696
2023/06/23 06:01:39.635, True, 1.687, 0.139925
2023/06/23 06:01:40.139, True, 1.987, 0.141451
2023/06/23 06:01:40.643, True, 1.658, 0.140841
2023/06/23 06:01:41.139, True, 2.022, 0.140764
2023/06/23 06:01:41.643, True, 1.657, 0.138323
2023/06/23 06:01:42.147, True, 1.990, 0.141451
2023/06/23 06:01:42.644, True, 2.021, 0.139086
2023/06/23 06:01:43.147, True, 1.994, 0.140536
2023/06/23 06:01:43.651, True, 1.985, 0.142824
2023/06/23 06:01:44.147, True, 1.685, 0.141070
2023/06/23 06:01:44.651, True, 1.989, 0.139925
2023/06/23 06:01:45.155, True, 1.989, 0.141527
2023/06/23 06:01:45.652, True, 1.685, 0.142519
2023/06/23 06:01:46.155, True, 1.989, 0.141222
2023/06/23 06:01:46.660, True, 1.990, 0.140002
2023/06/23 06:01:47.156, True, 2.022, 0.141680
2023/06/23 06:01:47.659, True, 1.990, 0.141527
2023/06/23 06:01:48.164, True, 1.658, 0.142596
2023/06/23 06:01:48.659, True, 2.021, 0.140612
2023/06/23 06:01:49.164, True, 1.658, 0.141909
2023/06/23 06:01:49.667, True, 1.989, 0.140230
2023/06/23 06:01:50.163, True, 2.022, 0.139925
2023/06/23 06:01:50.668, True, 1.990, 0.138705
2023/06/23 06:01:51.171, True, 1.658, 0.140917
2023/06/23 06:01:51.667, True, 2.022, 0.141756
2023/06/23 06:01:52.172, True, 1.990, 0.138705
2023/06/23 06:01:52.675, True, 1.990, 0.140459
2023/06/23 06:01:53.171, True, 2.022, 0.139162
2023/06/23 06:01:53.675, True, 1.989, 0.144121
2023/06/23 06:01:54.179, True, 1.658, 0.141680
2023/06/23 06:01:54.675, True, 1.685, 0.137560
2023/06/23 06:01:55.179, True, 1.990, 0.141833
2023/06/23 06:01:55.683, True, 1.990, 0.140078
2023/06/23 06:01:56.179, True, 2.022, 0.140383
2023/06/23 06:01:56.683, True, 1.658, 0.138552
2023/06/23 06:01:57.187, True, 1.990, 0.141756
2023/06/23 06:01:57.683, True, 2.022, 0.140230
2023/06/23 06:01:58.187, True, 1.990, 0.140383
2023/06/23 06:01:58.691, True, 1.989, 0.140078
2023/06/23 06:01:59.187, True, 2.022, 0.140383
2023/06/23 06:01:59.690, True, 1.658, 0.140688
2023/06/23 06:02:00.187, True, 2.022, 0.140917
2023/06/23 06:02:00.691, True, 1.658, 0.139010
2023/06/23 06:02:01.195, True, 1.989, 0.140307
2023/06/23 06:02:01.691, True, 1.685, 0.137484
2023/06/23 06:02:02.195, True, 1.990, 0.139315
2023/06/23 06:02:02.699, True, 1.989, 0.138476
2023/06/23 06:02:03.195, True, 1.685, 0.138933
2023/06/23 06:02:03.699, True, 1.989, 0.140002
2023/06/23 06:02:04.203, True, 1.660, 0.140459
2023/06/23 06:02:04.699, True, 2.020, 0.139849
2023/06/23 06:02:05.203, True, 1.990, 0.138705
2023/06/23 06:02:05.707, True, 1.992, 0.140078
2023/06/23 06:02:06.203, True, 1.684, 0.139544
2023/06/23 06:02:06.707, True, 1.988, 0.138323
2023/06/23 06:02:07.211, True, 1.992, 0.140078
2023/06/23 06:02:07.715, True, 1.990, 0.138399
2023/06/23 06:02:08.211, True, 2.021, 0.140841
2023/06/23 06:02:08.715, True, 1.988, 0.138628
2023/06/23 06:02:09.219, True, 1.658, 0.139620
2023/06/23 06:02:09.715, True, 2.022, 0.139925
2023/06/23 06:02:10.220, True, 1.989, 0.139773
2023/06/23 06:02:10.723, True, 1.661, 0.140764
2023/06/23 06:02:11.219, True, 2.022, 0.139010
2023/06/23 06:02:11.723, True, 1.986, 0.139315
2023/06/23 06:02:12.227, True, 1.658, 0.138399
2023/06/23 06:02:12.731, True, 1.990, 0.140078
2023/06/23 06:02:13.227, True, 2.022, 0.140002
2023/06/23 06:02:13.731, True, 1.658, 0.141222
2023/06/23 06:02:14.236, True, 1.990, 0.139010
2023/06/23 06:02:14.731, True, 2.022, 0.137942
2023/06/23 06:02:15.235, True, 1.989, 0.139773
2023/06/23 06:02:15.739, True, 1.990, 0.139162
2023/06/23 06:02:16.235, True, 1.684, 0.138857
2023/06/23 06:02:16.739, True, 1.993, 0.137102
2023/06/23 06:02:17.243, True, 1.987, 0.138933
2023/06/23 06:02:17.747, True, 1.989, 0.138323
2023/06/23 06:02:18.243, True, 1.685, 0.138857
2023/06/23 06:02:18.747, True, 1.990, 0.136645
2023/06/23 06:02:19.243, True, 2.026, 0.138323
2023/06/23 06:02:19.747, True, 1.986, 0.136721
2023/06/23 06:02:20.251, True, 1.992, 0.139239
2023/06/23 06:02:20.747, True, 2.019, 0.139315
2023/06/23 06:02:21.251, True, 1.658, 0.137102
2023/06/23 06:02:21.755, True, 1.989, 0.140078
2023/06/23 06:02:22.251, True, 2.022, 0.139773
2023/06/23 06:02:22.755, True, 1.658, 0.137255
2023/06/23 06:02:23.259, True, 1.990, 0.138018
2023/06/23 06:02:23.755, True, 1.685, 0.138018
2023/06/23 06:02:24.259, True, 1.989, 0.140307
2023/06/23 06:02:24.763, True, 1.990, 0.138094
2023/06/23 06:02:25.259, True, 2.021, 0.138476
2023/06/23 06:02:25.763, True, 1.990, 0.139315
2023/06/23 06:02:26.259, True, 2.022, 0.138933
2023/06/23 06:02:26.763, True, 1.989, 0.137560
2023/06/23 06:02:27.267, True, 1.658, 0.138094
2023/06/23 06:02:27.763, True, 2.022, 0.138933
2023/06/23 06:02:28.267, True, 1.990, 0.138781
2023/06/23 06:02:28.771, True, 1.990, 0.136187
2023/06/23 06:02:29.267, True, 1.688, 0.140154
2023/06/23 06:02:29.771, True, 1.986, 0.139620
2023/06/23 06:02:30.275, True, 1.990, 0.139620
2023/06/23 06:02:30.771, True, 1.685, 0.137407
2023/06/23 06:02:31.275, True, 1.990, 0.138476
2023/06/23 06:02:31.779, True, 1.989, 0.138399
2023/06/23 06:02:32.275, True, 2.023, 0.136873
2023/06/23 06:02:32.779, True, 1.657, 0.137713
2023/06/23 06:02:33.283, True, 1.989, 0.138476
2023/06/23 06:02:33.779, True, 2.026, 0.138323
2023/06/23 06:02:34.283, True, 1.986, 0.136568
2023/06/23 06:02:34.779, True, 2.025, 0.138552
2023/06/23 06:02:35.283, True, 1.990, 0.137179
2023/06/23 06:02:35.787, True, 1.985, 0.139544
2023/06/23 06:02:36.291, True, 1.658, 0.135729
2023/06/23 06:02:36.787, True, 2.022, 0.137560
2023/06/23 06:02:37.291, True, 1.658, 0.137713
2023/06/23 06:02:37.795, True, 1.989, 0.139773
2023/06/23 06:02:38.291, True, 1.685, 0.139391
2023/06/23 06:02:38.795, True, 1.990, 0.136339
2023/06/23 06:02:39.299, True, 1.990, 0.139162
2023/06/23 06:02:39.795, True, 1.685, 0.139696
2023/06/23 06:02:40.299, True, 1.990, 0.137789
2023/06/23 06:02:40.803, True, 1.989, 0.137407
2023/06/23 06:02:41.299, True, 2.022, 0.137865
2023/06/23 06:02:41.803, True, 1.990, 0.137179
2023/06/23 06:02:42.307, True, 1.989, 0.135729
2023/06/23 06:02:42.802, True, 1.685, 0.139544
2023/06/23 06:02:43.307, True, 1.989, 0.138247
2023/06/23 06:02:43.811, True, 1.659, 0.137407
2023/06/23 06:02:44.307, True, 2.021, 0.138018
2023/06/23 06:02:44.811, True, 1.990, 0.137331
2023/06/23 06:02:45.315, True, 1.989, 0.136797
2023/06/23 06:02:45.811, True, 2.025, 0.138247
2023/06/23 06:02:46.315, True, 1.988, 0.135653
2023/06/23 06:02:46.819, True, 1.988, 0.137407
2023/06/23 06:02:47.315, True, 2.022, 0.137789
2023/06/23 06:02:47.819, True, 1.989, 0.137255
2023/06/23 06:02:48.323, True, 1.658, 0.137636
2023/06/23 06:02:48.819, True, 2.022, 0.136187
2023/06/23 06:02:49.323, True, 1.989, 0.136645
2023/06/23 06:02:49.827, True, 1.990, 0.138247
2023/06/23 06:02:50.323, True, 2.022, 0.137636
2023/06/23 06:02:50.827, True, 1.657, 0.135653
2023/06/23 06:02:51.331, True, 1.991, 0.137102
2023/06/23 06:02:51.827, True, 1.685, 0.137484
2023/06/23 06:02:52.331, True, 1.989, 0.136416
2023/06/23 06:02:52.835, True, 1.991, 0.137331
2023/06/23 06:02:53.331, True, 1.684, 0.134966
2023/06/23 06:02:53.835, True, 1.990, 0.136721
2023/06/23 06:02:54.339, True, 1.659, 0.135576
2023/06/23 06:02:54.835, True, 2.022, 0.137636
2023/06/23 06:02:55.339, True, 1.988, 0.136187
2023/06/23 06:02:55.843, True, 1.991, 0.136797
2023/06/23 06:02:56.346, True, 1.656, 0.138781
2023/06/23 06:02:56.843, True, 2.022, 0.139696
2023/06/23 06:02:57.347, True, 1.992, 0.136797
2023/06/23 06:02:57.843, True, 2.022, 0.137179
2023/06/23 06:02:58.347, True, 1.987, 0.139162
2023/06/23 06:02:58.851, True, 1.660, 0.137484
2023/06/23 06:02:59.347, True, 2.022, 0.138094
2023/06/23 06:02:59.851, True, 1.656, 0.138705
2023/06/23 06:03:00.355, True, 1.991, 0.137713
2023/06/23 06:03:00.851, True, 2.022, 0.136187
2023/06/23 06:03:01.355, True, 1.986, 0.137102
2023/06/23 06:03:01.859, True, 1.992, 0.138705
2023/06/23 06:03:02.355, True, 1.683, 0.138323
2023/06/23 06:03:02.859, True, 1.989, 0.135805
2023/06/23 06:03:03.363, True, 1.990, 0.136721
2023/06/23 06:03:03.859, True, 2.021, 0.135042
2023/06/23 06:03:04.362, True, 1.658, 0.137484
2023/06/23 06:03:04.867, True, 1.989, 0.138018
2023/06/23 06:03:05.363, True, 2.022, 0.136568
2023/06/23 06:03:05.867, True, 1.989, 0.135424
2023/06/23 06:03:06.371, True, 1.990, 0.136873
2023/06/23 06:03:06.867, True, 2.025, 0.136568
2023/06/23 06:03:07.371, True, 1.655, 0.136721
2023/06/23 06:03:07.875, True, 1.990, 0.137713
2023/06/23 06:03:08.371, True, 1.685, 0.137865
2023/06/23 06:03:08.875, True, 1.989, 0.136873
2023/06/23 06:03:09.379, True, 1.990, 0.136568
2023/06/23 06:03:09.875, True, 1.685, 0.138018
2023/06/23 06:03:10.379, True, 1.989, 0.137026
2023/06/23 06:03:10.884, True, 1.990, 0.137102
2023/06/23 06:03:11.387, True, 1.990, 0.135882
2023/06/23 06:03:11.883, True, 1.684, 0.135805
2023/06/23 06:03:12.387, True, 1.989, 0.136721
2023/06/23 06:03:12.891, True, 1.990, 0.135958
2023/06/23 06:03:13.387, True, 1.685, 0.135729
2023/06/23 06:03:13.891, True, 1.991, 0.137560
2023/06/23 06:03:14.387, True, 2.020, 0.138018
2023/06/23 06:03:14.891, True, 1.990, 0.136034
2023/06/23 06:03:15.395, True, 1.989, 0.136263
2023/06/23 06:03:15.899, True, 1.661, 0.138247
2023/06/23 06:03:16.395, True, 2.018, 0.136416
2023/06/23 06:03:16.899, True, 1.660, 0.140612
2023/06/23 06:03:17.395, True, 2.020, 0.136034
2023/06/23 06:03:17.899, True, 1.660, 0.135576
2023/06/23 06:03:18.403, True, 1.986, 0.136416
2023/06/23 06:03:18.899, True, 1.685, 0.136873
2023/06/23 06:03:19.403, True, 1.990, 0.138781
2023/06/23 06:03:19.907, True, 1.658, 0.138018
2023/06/23 06:03:20.411, True, 1.990, 0.137255
2023/06/23 06:03:20.907, True, 1.684, 0.135805
2023/06/23 06:03:21.411, True, 1.990, 0.137942
2023/06/23 06:03:21.915, True, 1.990, 0.134966
2023/06/23 06:03:22.411, True, 1.685, 0.137331
2023/06/23 06:03:22.915, True, 1.990, 0.137179
2023/06/23 06:03:23.419, True, 1.989, 0.135805
2023/06/23 06:03:23.915, True, 1.685, 0.138018
2023/06/23 06:03:24.419, True, 1.992, 0.134585
2023/06/23 06:03:24.923, True, 1.987, 0.137636
2023/06/23 06:03:25.419, True, 1.684, 0.136568
2023/06/23 06:03:25.923, True, 1.990, 0.136263
2023/06/23 06:03:26.427, True, 1.658, 0.135042
2023/06/23 06:03:26.923, True, 2.022, 0.136797
2023/06/23 06:03:27.427, True, 1.989, 0.135805
2023/06/23 06:03:27.931, True, 1.659, 0.137484
2023/06/23 06:03:28.435, True, 1.990, 0.134813
2023/06/23 06:03:28.931, True, 1.684, 0.134890
2023/06/23 06:03:29.435, True, 1.993, 0.134966
2023/06/23 06:03:29.931, True, 1.682, 0.137942
2023/06/23 06:03:30.435, True, 1.989, 0.134432
2023/06/23 06:03:30.938, True, 1.993, 0.138170
2023/06/23 06:03:31.435, True, 1.681, 0.134585
2023/06/23 06:03:31.939, True, 1.990, 0.135042
2023/06/23 06:03:32.443, True, 1.989, 0.135119
2023/06/23 06:03:32.947, True, 1.661, 0.136263
2023/06/23 06:03:33.443, True, 2.021, 0.137484
2023/06/23 06:03:33.947, True, 1.656, 0.133669
2023/06/23 06:03:34.443, True, 2.021, 0.133516
2023/06/23 06:03:34.947, True, 1.993, 0.135805
2023/06/23 06:03:35.451, True, 1.988, 0.136797
2023/06/23 06:03:35.954, True, 1.660, 0.134203
2023/06/23 06:03:36.451, True, 2.020, 0.137560
2023/06/23 06:03:36.955, True, 1.988, 0.137102
2023/06/23 06:03:37.458, True, 1.990, 0.134051
2023/06/23 06:03:37.955, True, 1.686, 0.135805
2023/06/23 06:03:38.459, True, 1.658, 0.136339
2023/06/23 06:03:38.955, True, 2.021, 0.135195
2023/06/23 06:03:39.459, True, 1.990, 0.137942
2023/06/23 06:03:39.963, True, 1.658, 0.136339
2023/06/23 06:03:40.459, True, 2.021, 0.135424
2023/06/23 06:03:40.963, True, 1.989, 0.136721
2023/06/23 06:03:41.467, True, 1.990, 0.135195
2023/06/23 06:03:41.963, True, 2.022, 0.134585
2023/06/23 06:03:42.467, True, 1.661, 0.134356
2023/06/23 06:03:42.970, True, 1.986, 0.135348
2023/06/23 06:03:43.467, True, 1.685, 0.136492
2023/06/23 06:03:43.971, True, 1.989, 0.135576
2023/06/23 06:03:44.475, True, 1.992, 0.136263
2023/06/23 06:03:44.971, True, 2.021, 0.135119
2023/06/23 06:03:45.475, True, 1.989, 0.135958
2023/06/23 06:03:45.979, True, 1.659, 0.135576
2023/06/23 06:03:46.475, True, 2.019, 0.134737
2023/06/23 06:03:46.979, True, 1.989, 0.135576
2023/06/23 06:03:47.483, True, 1.990, 0.135958
2023/06/23 06:03:47.979, True, 1.685, 0.137560
2023/06/23 06:03:48.483, True, 1.991, 0.132525
2023/06/23 06:03:48.987, True, 1.988, 0.135653
2023/06/23 06:03:49.483, True, 1.685, 0.133669
2023/06/23 06:03:49.986, True, 1.991, 0.134813
2023/06/23 06:03:50.491, True, 1.991, 0.135958
2023/06/23 06:03:50.987, True, 1.684, 0.133135
2023/06/23 06:03:51.491, True, 1.988, 0.136263
2023/06/23 06:03:51.995, True, 1.658, 0.132677
2023/06/23 06:03:52.491, True, 2.022, 0.133135
2023/06/23 06:03:52.995, True, 1.991, 0.135042
2023/06/23 06:03:53.499, True, 1.657, 0.135348
2023/06/23 06:03:53.995, True, 2.022, 0.136034
2023/06/23 06:03:54.499, True, 1.989, 0.134966
2023/06/23 06:03:55.003, True, 1.990, 0.132982
2023/06/23 06:03:55.499, True, 2.022, 0.135805
2023/06/23 06:03:56.003, True, 1.989, 0.135576
2023/06/23 06:03:56.507, True, 1.992, 0.133669
2023/06/23 06:03:57.003, True, 1.682, 0.134432
2023/06/23 06:03:57.507, True, 1.990, 0.135882
2023/06/23 06:03:58.011, True, 1.658, 0.135424
2023/06/23 06:03:58.507, True, 2.022, 0.136187
2023/06/23 06:03:59.011, True, 1.990, 0.135271
2023/06/23 06:03:59.515, True, 1.658, 0.134661
2023/06/23 06:04:00.011, True, 2.021, 0.136873
2023/06/23 06:04:00.515, True, 1.990, 0.134051
2023/06/23 06:04:01.019, True, 1.990, 0.135500
2023/06/23 06:04:01.523, True, 1.658, 0.135195
2023/06/23 06:04:02.019, True, 2.023, 0.135805
2023/06/23 06:04:02.523, True, 1.657, 0.135195
2023/06/23 06:04:03.027, True, 1.992, 0.133516
2023/06/23 06:04:03.523, True, 2.019, 0.134737
2023/06/23 06:04:04.027, True, 1.993, 0.136187
2023/06/23 06:04:04.531, True, 1.986, 0.135805
2023/06/23 06:04:05.027, True, 1.687, 0.133669
2023/06/23 06:04:05.530, True, 1.987, 0.135042
2023/06/23 06:04:06.035, True, 1.990, 0.134737
2023/06/23 06:04:06.531, True, 2.023, 0.137255
2023/06/23 06:04:07.035, True, 1.992, 0.134279
2023/06/23 06:04:07.539, True, 1.656, 0.134127
2023/06/23 06:04:08.043, True, 1.989, 0.134279
2023/06/23 06:04:08.539, True, 1.685, 0.132448
2023/06/23 06:04:09.043, True, 1.989, 0.133288
2023/06/23 06:04:09.547, True, 1.658, 0.136034
2023/06/23 06:04:10.043, True, 2.022, 0.135882
2023/06/23 06:04:10.547, True, 1.989, 0.133898
2023/06/23 06:04:11.051, True, 1.990, 0.134432